Tracking 19212 objects as of 16-Jul-2018
HD Live streaming from Space Station
objects crossing your sky now

USA 173 DEB

Track USA 173 DEB now!
10-day predictions


NORAD ID: 28097
Int'l Code: 2003-054C
Perigee: 860.6 km
Apogee: 1,366.6 km
Inclination: 63.4 °
Period: 107.4 minutes
Semi major axis: 7484 km
RCS: Unknown
Launch date: December 2, 2003
Source: United States (US)
Launch site: AIR FORCE WESTERN TEST RANGE (AFWTR)

Note: This is SATELLITE DEBRIS
aabbcc
Your satellite tracking list
Your tracking list is empty




NASA's NSSDC Master Catalog

Two Line Element Set (TLE):
1 28097U 03054C   18175.91169259 0.00000000  00000-0  00000-0 0    05
2 28097  63.4175  85.7109 0338000 357.9995   2.0004 13.40748962    05
Source of the keplerian elements: McCants